This is the latest recevied weather packets stored in our database for station/object IW8PDD-3. If no packets are shown the sender has not sent any weather packets the latest 1 day(s).
| Time | Temp. | Humidity | Pressure | Rain* | Wind** | Luminosity | Snow |
|---|---|---|---|---|---|---|---|
| 1778100230 | 18.33° C | 65% | 1014.1 hPa | - | - | - | - |
| 1778084581 | 20.56° C | 62% | 1015 hPa | - | - | - | - |
| 1778083377 | 20.56° C | 63% | 1015.1 hPa | - | - | - | - |
| 1778082173 | 20.56° C | 62% | 1015.3 hPa | - | - | - | - |
| 1778080969 | 21.11° C | 61% | 1015.3 hPa | - | - | - | - |
| 1778079765 | 21.67° C | 61% | 1015.3 hPa | - | - | - | - |
| 1778077357 | 23.33° C | 57% | 1014.7 hPa | - | - | - | - |
| 1778076153 | 25.56° C | 55% | 1014.9 hPa | - | - | - | - |
| 1778064116 | 22.22° C | 54% | 1015.8 hPa | - | - | - | - |
| 1778062912 | 22.22° C | 54% | 1015.9 hPa | - | - | - | - |
| 1778061709 | 22.22° C | 55% | 1016.1 hPa | - | - | - | - |
| 1778059302 | 21.67° C | 61% | 1015.8 hPa | - | - | - | - |
| 1778058098 | 21.11° C | 62% | 1016 hPa | - | - | - | - |
| 1778056895 | 20.56° C | 64% | 1016 hPa | - | - | - | - |
| 1778055692 | 21.11° C | 64% | 1016.1 hPa | - | - | - | - |
| 1778054488 | 20.56° C | 65% | 1015.9 hPa | - | - | - | - |
| 1778052081 | 19.44° C | 67% | 1016.4 hPa | - | - | - | - |
| 1778049674 | 18.89° C | 69% | 1016.3 hPa | - | - | - | - |
| 1778044860 | 17.78° C | 69% | 1015.5 hPa | - | - | - | - |
| 1778042453 | 17.22° C | 69% | 1015.4 hPa | - | - | - | - |
| 1778041250 | 17.22° C | 70% | 1015.4 hPa | - | - | - | - |
| 1778040046 | 17.22° C | 70% | 1015.3 hPa | - | - | - | - |
| 1778038843 | 17.22° C | 70% | 1015.2 hPa | - | - | - | - |
| 1778036436 | 17.22° C | 71% | 1015.1 hPa | - | - | - | - |
| 1778034029 | 17.78° C | 71% | 1015.2 hPa | - | - | - | - |
* Rain since midnight (hover to see other rain measurements)
** Current wind speed in m/s (hover to see current wind gust speed)